Location: Newark
(48.3453°N, 0.5589°E)
Time: 17:20:15
(UTC+00:00)

A-11 Canister half - Pass Details

Date: 14 December 2019
Orbit: 1517 x 1683 km, 47.2° (Epoch: 25 January)

Event Time Altitude Azimuth Distance (km) Brightness Sun altitude
Rises 14:41:08 0° 276° (W) 4,797 12.1 9.1°
Reaches altitude 10° 14:44:11 10° 276° (W) 3,834 11.6 8.8°
Maximum altitude 14:54:02 81° 192° (SSW) 1,672 9.5 7.7°
Drops below altitude 10° 15:04:09 10° 107° (ESE) 3,936 10.9 6.6°
Sets 15:07:20 0° 106° (ESE) 4,930 11.4 6.2°
